Time,TemperatureF,DewpointF,PressureIn,WindDirection,WindDirectionDegrees,WindSpeedMPH,WindSpeedGustMPH,Humidity,HourlyPrecipIn,Conditions,Clouds,dailyrainin,SoftwareType,DateUTC
2013-05-07 00:01:00,61.0,37.0,29.88,SW,217,0.0,1.0,41,0.00,,,0.03,,2013-05-07 07:01:00,
2013-05-07 00:11:00,61.0,37.0,29.88,SW,217,0.0,1.0,41,0.00,,,0.03,,2013-05-07 07:11:00,
2013-05-07 00:22:00,60.0,36.0,29.88,SW,217,0.0,1.0,41,0.00,,,0.03,,2013-05-07 07:22:00,
2013-05-07 00:31:00,61.0,36.0,29.89,SW,221,0.0,2.0,40,0.00,,,0.05,,2013-05-07 07:31:00,
2013-05-07 00:42:00,61.0,36.0,29.89,SW,221,0.0,2.0,40,0.00,,,0.05,,2013-05-07 07:42:00,
2013-05-07 00:52:00,61.0,36.0,29.89,SW,221,0.0,0.0,40,0.00,,,0.03,,2013-05-07 07:52:00,
2013-05-07 01:02:00,60.0,37.0,29.89,SW,221,0.0,1.0,42,0.00,,,0.03,,2013-05-07 08:02:00,
2013-05-07 01:11:00,60.0,37.0,29.89,SW,221,0.0,1.0,42,0.00,,,0.03,,2013-05-07 08:11:00,
2013-05-07 01:21:00,59.0,37.0,29.89,SW,221,0.0,0.0,43,0.00,,,0.02,,2013-05-07 08:21:00,
2013-05-07 01:31:00,58.0,36.0,29.88,SW,221,0.0,0.0,44,0.00,,,0.02,,2013-05-07 08:31:00,
2013-05-07 01:41:00,58.0,36.0,29.88,SW,221,0.0,0.0,44,0.00,,,0.02,,2013-05-07 08:41:00,
2013-05-07 01:51:00,58.0,37.0,29.88,SW,221,0.0,0.0,45,0.00,,,0.02,,2013-05-07 08:51:00,
2013-05-07 02:01:00,57.0,36.0,29.88,SW,221,0.0,2.0,45,0.00,,,0.02,,2013-05-07 09:01:00,
2013-05-07 02:11:00,57.0,36.0,29.88,SW,221,0.0,2.0,45,0.00,,,0.02,,2013-05-07 09:11:00,
2013-05-07 02:22:00,57.0,36.0,29.88,SW,221,1.0,2.0,45,0.00,,,0.02,,2013-05-07 09:22:00,
2013-05-07 02:33:00,57.0,36.0,29.88,SW,222,0.0,2.0,45,0.00,,,0.02,,2013-05-07 09:33:00,
2013-05-07 02:42:00,57.0,36.0,29.88,SW,222,0.0,2.0,45,0.00,,,0.02,,2013-05-07 09:42:00,
2013-05-07 02:52:00,56.0,36.0,29.88,SW,222,0.0,0.0,46,0.00,,,0.02,,2013-05-07 09:52:00,
2013-05-07 03:02:00,55.0,36.0,29.88,SW,222,0.0,0.0,48,0.00,,,0.02,,2013-05-07 10:02:00,
2013-05-07 03:12:00,55.0,36.0,29.88,SW,222,0.0,0.0,48,0.00,,,0.02,,2013-05-07 10:12:00,
2013-05-07 03:22:00,55.0,36.0,29.88,SW,222,0.0,1.0,49,0.00,,,0.02,,2013-05-07 10:22:00,
2013-05-07 03:32:00,56.0,37.0,29.88,SW,222,0.0,2.0,48,0.00,,,0.02,,2013-05-07 10:32:00,
2013-05-07 03:42:00,56.0,37.0,29.88,SW,222,0.0,1.0,49,0.00,,,0.02,,2013-05-07 10:42:00,
2013-05-07 03:52:00,56.0,37.0,29.88,SW,222,0.0,1.0,49,0.00,,,0.02,,2013-05-07 10:52:00,
2013-05-07 04:02:00,55.0,37.0,29.88,SW,222,0.0,1.0,50,0.00,,,0.02,,2013-05-07 11:02:00,
2013-05-07 04:11:00,55.0,37.0,29.88,SW,222,0.0,1.0,50,0.00,,,0.02,,2013-05-07 11:11:00,
2013-05-07 04:21:00,55.0,37.0,29.88,NNW,338,0.0,3.0,50,0.00,,,0.02,,2013-05-07 11:21:00,
2013-05-07 04:32:00,55.0,37.0,29.88,NNW,338,0.0,2.0,50,0.00,,,0.02,,2013-05-07 11:32:00,
2013-05-07 04:42:00,55.0,37.0,29.88,NNW,338,0.0,2.0,50,0.00,,,0.02,,2013-05-07 11:42:00,
2013-05-07 04:52:00,56.0,37.0,29.88,NNW,339,1.0,3.0,48,0.00,,,0.02,,2013-05-07 11:52:00,
2013-05-07 05:01:00,59.0,39.0,29.88,NNW,343,1.0,4.0,48,0.00,,,0.02,,2013-05-07 12:01:00,
2013-05-07 05:11:00,59.0,39.0,29.88,NNW,343,1.0,4.0,48,0.00,,,0.02,,2013-05-07 12:11:00,
2013-05-07 05:21:00,59.0,40.0,29.88,NNW,343,0.0,0.0,49,0.00,,,0.02,,2013-05-07 12:21:00,
2013-05-07 05:32:00,58.0,39.0,29.89,NNW,343,0.0,2.0,50,0.00,,,0.02,,2013-05-07 12:32:00,
2013-05-07 05:41:00,58.0,39.0,29.89,NNW,343,0.0,2.0,50,0.00,,,0.02,,2013-05-07 12:41:00,
2013-05-07 05:52:00,59.0,40.0,29.89,NNW,343,0.0,1.0,49,0.00,,,0.02,,2013-05-07 12:52:00,
2013-05-07 06:01:00,58.0,40.0,29.89,North,359,1.0,4.0,51,0.00,,,0.02,,2013-05-07 13:01:00,
2013-05-07 06:11:00,58.0,40.0,29.89,North,359,1.0,4.0,51,0.00,,,0.02,,2013-05-07 13:11:00,
2013-05-07 06:21:00,60.0,41.0,29.90,North,358,1.0,4.0,49,0.00,,,0.02,,2013-05-07 13:21:00,
2013-05-07 06:32:00,62.0,42.0,29.90,NW,317,2.0,6.0,47,0.00,,,0.02,,2013-05-07 13:32:00,
2013-05-07 06:42:00,62.0,42.0,29.90,NW,317,2.0,6.0,47,0.00,,,0.02,,2013-05-07 13:42:00,
2013-05-07 06:52:00,65.0,43.0,29.90,West,264,2.0,9.0,44,0.00,,,0.02,,2013-05-07 13:52:00,
2013-05-07 07:01:00,66.0,43.0,29.90,NW,323,4.0,9.0,43,0.00,,,0.02,,2013-05-07 14:01:00,
2013-05-07 07:21:00,67.0,43.0,29.90,NNW,334,5.0,12.0,42,0.00,,,0.02,,2013-05-07 14:21:00,
2013-05-07 07:31:00,68.0,43.0,29.91,SW,234,3.0,12.0,40,0.00,,,0.02,,2013-05-07 14:31:00,
2013-05-07 07:42:00,68.0,43.0,29.91,SW,234,3.0,12.0,40,0.00,,,0.02,,2013-05-07 14:42:00,
2013-05-07 07:52:00,69.0,44.0,29.91,NW,326,4.0,9.0,40,0.00,,,0.02,,2013-05-07 14:52:00,
2013-05-07 08:01:00,70.0,44.0,29.91,West,273,4.0,7.0,39,0.00,,,0.02,,2013-05-07 15:01:00,
2013-05-07 08:11:00,70.0,44.0,29.91,West,273,4.0,7.0,39,0.00,,,0.02,,2013-05-07 15:11:00,
2013-05-07 08:21:00,70.0,43.0,29.91,WNW,296,4.0,10.0,38,0.00,,,0.02,,2013-05-07 15:21:00,
2013-05-07 08:33:00,71.0,44.0,29.91,WSW,241,5.0,10.0,38,0.00,,,0.02,,2013-05-07 15:33:00,
2013-05-07 08:42:00,71.0,44.0,29.91,WSW,241,5.0,10.0,38,0.00,,,0.02,,2013-05-07 15:42:00,
2013-05-07 08:53:00,71.0,44.0,29.91,WSW,241,5.0,10.0,38,0.00,,,0.02,,2013-05-07 15:53:00,
2013-05-07 09:02:00,71.0,43.0,29.91,West,260,5.0,12.0,36,0.00,,,0.02,,2013-05-07 16:02:00,
2013-05-07 09:12:00,71.0,43.0,29.91,West,260,5.0,12.0,36,0.00,,,0.02,,2013-05-07 16:12:00,
2013-05-07 09:22:00,70.0,43.0,29.91,WSW,258,3.0,9.0,37,0.00,,,0.02,,2013-05-07 16:22:00,
2013-05-07 09:32:00,72.0,42.0,29.91,SW,228,3.0,8.0,34,0.00,,,0.02,,2013-05-07 16:32:00,
2013-05-07 09:41:00,72.0,42.0,29.91,SW,228,3.0,8.0,34,0.00,,,0.02,,2013-05-07 16:41:00,
2013-05-07 09:51:00,72.0,42.0,29.91,SW,228,3.0,8.0,34,0.00,,,0.02,,2013-05-07 16:51:00,
2013-05-07 10:01:00,73.0,41.0,29.91,West,274,4.0,9.0,32,0.00,,,0.02,,2013-05-07 17:01:00,
2013-05-07 10:11:00,73.0,41.0,29.91,West,274,4.0,9.0,32,0.00,,,0.02,,2013-05-07 17:11:00,
2013-05-07 10:21:00,73.0,41.0,29.91,SW,221,3.0,10.0,31,0.00,,,0.02,,2013-05-07 17:21:00,
2013-05-07 10:31:00,74.0,41.0,29.90,WSW,238,2.0,10.0,30,0.00,,,0.02,,2013-05-07 17:31:00,
2013-05-07 10:41:00,74.0,41.0,29.90,WSW,238,2.0,10.0,30,0.00,,,0.02,,2013-05-07 17:41:00,
2013-05-07 10:52:00,74.0,41.0,29.90,WSW,238,2.0,10.0,30,0.00,,,0.02,,2013-05-07 17:52:00,
2013-05-07 11:01:00,74.0,41.0,29.90,West,267,3.0,9.0,30,0.00,,,0.02,,2013-05-07 18:01:00,
2013-05-07 11:11:00,74.0,41.0,29.90,West,267,3.0,9.0,30,0.00,,,0.02,,2013-05-07 18:11:00,
2013-05-07 11:21:00,75.0,41.0,29.89,SSE,166,3.0,10.0,29,0.00,,,0.02,,2013-05-07 18:21:00,
2013-05-07 11:31:00,74.0,41.0,29.89,South,189,3.0,9.0,30,0.00,,,0.02,,2013-05-07 18:31:00,
2013-05-07 11:41:00,74.0,41.0,29.89,South,189,3.0,9.0,30,0.00,,,0.02,,2013-05-07 18:41:00,
2013-05-07 11:52:00,75.0,42.0,29.88,SW,233,2.0,10.0,31,0.00,,,0.02,,2013-05-07 18:52:00,
2013-05-07 12:01:00,75.0,41.0,29.87,West,265,2.0,10.0,30,0.00,,,0.02,,2013-05-07 19:01:00,
2013-05-07 12:11:00,75.0,41.0,29.87,West,265,2.0,10.0,30,0.00,,,0.02,,2013-05-07 19:11:00,
2013-05-07 12:21:00,76.0,41.0,29.86,West,263,3.0,9.0,28,0.00,,,0.02,,2013-05-07 19:21:00,
2013-05-07 12:31:00,76.0,41.0,29.86,West,276,2.0,10.0,29,0.00,,,0.02,,2013-05-07 19:31:00,
2013-05-07 12:41:00,76.0,41.0,29.86,West,276,2.0,10.0,29,0.00,,,0.02,,2013-05-07 19:41:00,
2013-05-07 12:52:00,77.0,39.0,29.85,SSE,158,5.0,11.0,26,0.00,,,0.02,,2013-05-07 19:52:00,
2013-05-07 13:01:00,79.0,39.0,29.84,WNW,282,3.0,11.0,24,0.00,,,0.02,,2013-05-07 20:01:00,
2013-05-07 13:11:00,79.0,39.0,29.84,WNW,282,3.0,11.0,24,0.00,,,0.02,,2013-05-07 20:11:00,
2013-05-07 13:21:00,79.0,39.0,29.84,West,278,5.0,13.0,24,0.00,,,0.02,,2013-05-07 20:21:00,
2013-05-07 13:32:00,78.0,37.0,29.83,West,267,4.0,12.0,23,0.00,,,0.02,,2013-05-07 20:32:00,
2013-05-07 13:41:00,78.0,37.0,29.83,West,267,4.0,12.0,23,0.00,,,0.02,,2013-05-07 20:41:00,
2013-05-07 13:51:00,80.0,35.0,29.83,West,266,6.0,14.0,20,0.00,,,0.02,,2013-05-07 20:51:00,
2013-05-07 14:01:00,81.0,37.0,29.82,SW,230,5.0,15.0,21,0.00,,,0.02,,2013-05-07 21:01:00,
2013-05-07 14:11:00,81.0,37.0,29.82,SW,230,5.0,15.0,21,0.00,,,0.02,,2013-05-07 21:11:00,
2013-05-07 14:21:00,84.0,36.0,29.81,WSW,238,7.0,23.0,18,0.00,,,0.02,,2013-05-07 21:21:00,
2013-05-07 14:32:00,82.0,33.0,29.80,West,263,9.0,17.0,17,0.00,,,0.02,,2013-05-07 21:32:00,
2013-05-07 14:42:00,82.0,33.0,29.80,West,263,9.0,17.0,17,0.00,,,0.02,,2013-05-07 21:42:00,
2013-05-07 14:52:00,83.0,35.0,29.80,WNW,287,8.0,16.0,18,0.00,,,0.02,,2013-05-07 21:52:00,
2013-05-07 15:02:00,83.0,34.0,29.79,South,184,7.0,14.0,17,0.00,,,0.02,,2013-05-07 22:02:00,
2013-05-07 15:12:00,83.0,34.0,29.79,South,184,7.0,14.0,17,0.00,,,0.02,,2013-05-07 22:12:00,
2013-05-07 15:22:00,84.0,31.0,29.78,West,259,6.0,17.0,15,0.00,,,0.02,,2013-05-07 22:22:00,
2013-05-07 15:32:00,85.0,27.0,29.78,South,190,8.0,15.0,12,0.00,,,0.02,,2013-05-07 22:32:00,
2013-05-07 15:42:00,84.0,28.0,29.78,SSW,209,8.0,17.0,13,0.00,,,0.02,,2013-05-07 22:42:00,
2013-05-07 15:52:00,84.0,28.0,29.78,SSW,209,8.0,17.0,13,0.00,,,0.02,,2013-05-07 22:52:00,
2013-05-07 16:01:00,84.0,28.0,29.77,SW,217,8.0,16.0,13,0.00,,,0.02,,2013-05-07 23:01:00,
2013-05-07 16:11:00,84.0,28.0,29.77,SW,217,8.0,16.0,13,0.00,,,0.02,,2013-05-07 23:11:00,
2013-05-07 16:21:00,84.0,28.0,29.77,WSW,247,7.0,16.0,13,0.00,,,0.02,,2013-05-07 23:21:00,
2013-05-07 16:32:00,83.0,27.0,29.77,WNW,286,8.0,15.0,13,0.00,,,0.02,,2013-05-07 23:32:00,
2013-05-07 16:41:00,83.0,27.0,29.76,WNW,284,8.0,21.0,13,0.00,,,0.02,,2013-05-07 23:41:00,
2013-05-07 16:52:00,83.0,27.0,29.76,WNW,284,8.0,21.0,13,0.00,,,0.02,,2013-05-07 23:52:00,
2013-05-07 17:01:00,82.0,26.0,29.76,WSW,252,10.0,21.0,13,0.00,,,0.02,,2013-05-08 00:01:00,
2013-05-07 17:11:00,82.0,26.0,29.76,WSW,252,10.0,21.0,13,0.00,,,0.02,,2013-05-08 00:11:00,
2013-05-07 17:21:00,82.0,26.0,29.77,West,261,10.0,19.0,13,0.00,,,0.02,,2013-05-08 00:21:00,
2013-05-07 17:32:00,81.0,26.0,29.77,West,272,8.0,19.0,13,0.00,,,0.02,,2013-05-08 00:32:00,
2013-05-07 17:41:00,81.0,26.0,29.77,SW,234,8.0,17.0,13,0.00,,,0.02,,2013-05-08 00:41:00,
2013-05-07 17:52:00,81.0,26.0,29.77,SW,234,8.0,17.0,13,0.00,,,0.02,,2013-05-08 00:52:00,
2013-05-07 18:01:00,80.0,27.0,29.77,SSW,206,8.0,18.0,14,0.00,,,0.02,,2013-05-08 01:01:00,
2013-05-07 18:11:00,80.0,27.0,29.77,SSW,206,8.0,18.0,14,0.00,,,0.02,,2013-05-08 01:11:00,
2013-05-07 18:21:00,80.0,28.0,29.77,West,276,7.0,18.0,15,0.00,,,0.02,,2013-05-08 01:21:00,
2013-05-07 18:31:00,79.0,29.0,29.77,West,272,7.0,13.0,16,0.00,,,0.02,,2013-05-08 01:31:00,
2013-05-07 18:42:00,78.0,27.0,29.77,West,278,8.0,15.0,15,0.00,,,0.02,,2013-05-08 01:42:00,
2013-05-07 18:52:00,78.0,27.0,29.77,West,278,8.0,15.0,15,0.00,,,0.02,,2013-05-08 01:52:00,
2013-05-07 19:01:00,78.0,28.0,29.77,SW,215,7.0,15.0,16,0.00,,,0.02,,2013-05-08 02:01:00,
2013-05-07 19:11:00,78.0,28.0,29.77,SW,215,7.0,15.0,16,0.00,,,0.02,,2013-05-08 02:11:00,
2013-05-07 19:21:00,76.0,28.0,29.78,WNW,286,7.0,15.0,17,0.00,,,0.02,,2013-05-08 02:21:00,
2013-05-07 19:31:00,75.0,30.0,29.78,WSW,257,6.0,14.0,19,0.00,,,0.02,,2013-05-08 02:31:00,
2013-05-07 19:42:00,74.0,25.0,29.79,WSW,250,7.0,15.0,16,0.00,,,0.02,,2013-05-08 02:42:00,
2013-05-07 19:52:00,74.0,25.0,29.79,WSW,250,7.0,15.0,16,0.00,,,0.02,,2013-05-08 02:52:00,
2013-05-07 20:01:00,74.0,25.0,29.80,West,276,6.0,14.0,16,0.00,,,0.02,,2013-05-08 03:01:00,
2013-05-07 20:11:00,74.0,25.0,29.80,West,276,6.0,14.0,16,0.00,,,0.02,,2013-05-08 03:11:00,
2013-05-07 20:21:00,73.0,24.0,29.80,West,276,6.0,13.0,16,0.00,,,0.02,,2013-05-08 03:21:00,
2013-05-07 20:32:00,72.0,39.0,29.81,West,281,7.0,13.0,30,0.00,,,0.02,,2013-05-08 03:32:00,
2013-05-07 20:52:00,71.0,43.0,29.82,West,273,9.0,16.0,36,0.00,,,0.02,,2013-05-08 03:52:00,
2013-05-07 21:02:00,69.0,44.0,29.83,WNW,285,9.0,18.0,40,0.00,,,0.02,,2013-05-08 04:02:00,
2013-05-07 21:22:00,69.0,45.0,29.83,West,274,7.0,18.0,42,0.00,,,0.02,,2013-05-08 04:22:00,
2013-05-07 21:32:00,68.0,44.0,29.84,WNW,282,4.0,12.0,42,0.00,,,0.02,,2013-05-08 04:32:00,
2013-05-07 21:42:00,68.0,44.0,29.84,WNW,282,4.0,12.0,42,0.00,,,0.02,,2013-05-08 04:42:00,
2013-05-07 21:52:00,67.0,44.0,29.85,West,279,5.0,9.0,44,0.00,,,0.02,,2013-05-08 04:52:00,
2013-05-07 22:02:00,67.0,45.0,29.86,WSW,240,5.0,9.0,45,0.00,,,0.02,,2013-05-08 05:02:00,
2013-05-07 22:12:00,67.0,45.0,29.86,WSW,240,5.0,9.0,45,0.00,,,0.02,,2013-05-08 05:12:00,
2013-05-07 22:22:00,66.0,45.0,29.86,West,277,3.0,11.0,46,0.00,,,0.02,,2013-05-08 05:22:00,
2013-05-07 22:32:00,66.0,45.0,29.87,West,280,2.0,7.0,46,0.00,,,0.02,,2013-05-08 05:32:00,
2013-05-07 22:42:00,66.0,45.0,29.87,West,280,2.0,7.0,46,0.00,,,0.02,,2013-05-08 05:42:00,
2013-05-07 22:52:00,65.0,44.0,29.87,West,259,2.0,6.0,46,0.00,,,0.02,,2013-05-08 05:52:00,
2013-05-07 23:01:00,65.0,44.0,29.87,West,278,2.0,7.0,46,0.00,,,0.02,,2013-05-08 06:01:00,
2013-05-07 23:11:00,65.0,44.0,29.87,West,278,2.0,7.0,46,0.00,,,0.02,,2013-05-08 06:11:00,
2013-05-07 23:21:00,65.0,44.0,29.88,West,262,3.0,7.0,46,0.00,,,0.02,,2013-05-08 06:21:00,
2013-05-07 23:31:00,64.0,43.0,29.88,WNW,284,2.0,7.0,46,0.00,,,0.02,,2013-05-08 06:31:00,
2013-05-07 23:41:00,64.0,43.0,29.88,WNW,284,2.0,7.0,46,0.00,,,0.02,,2013-05-08 06:41:00,
2013-05-07 23:52:00,63.0,41.0,29.88,WNW,285,2.0,7.0,45,0.00,,,0.02,,2013-05-08 06:52:00,